Location: C�an Torras
(41.5052°N, 1.9280°E)
Time: 17:46:40
(UTC+00:00)

Meteor 1-24 Rocket - Pass Details

Date: 20 January 2021
Orbit: 791 x 927 km, 81.3° (Epoch: 02 March)

Event Time Altitude Azimuth Distance (km) Brightness Sun altitude
Rises 17:37:58 0° 191° (S) 3,329 7.2 -8.5°
Reaches altitude 10° 17:40:22 10° 192° (SSW) 2,386 6.5 -8.9°
Maximum altitude 17:45:44 80° 280° (W) 814 3.7 -9.9°
Drops below altitude 10° 17:51:04 10° 7° (N) 2,365 5.8 -10.8°
Sets 17:53:26 0° 9° (N) 3,298 6.5 -11.3°
